Theta_e
327 331 331 330 331 330 332 334 332 331 332 332 329 333 333 333 333 331 330 330 330 330 329 329 331 333 332 335 335 334 333 335 334 334 336 336 336 337 341 338 341 338 344
329 331 331 331 332 332 330 332 333 330 332 332 333 330 332 332 331 331 330 330 329 329 328 329 332 332 330 331 331 332 331 332 332 332 333 333 331 333 336 338 336 337 341
328 329 330 330 331 331 332 330 330 329 331 329 331 332 332 331 331 331 331 329 329 328 327 328 330 331 331 330 329 329 330 330 330 329 331 332 331 331 333 334 337 335 336
328 329 329 332 332 331 331 333 331 330 331 330 331 330 331 328 329 329 328 329 328 327 326 327 329 329 329 328 328 327 327 327 327 327 329 328 329 334 331 330 332 335 333
328 328 329 334 331 331 328 330 329 328 329 328 328 327 328 328 327 328 328 327 328 326 325 326 326 327 327 327 326 326 323 324 325 326 327 329 329 330 335 332 330 331 334
327 327 331 333 331 331 329 329 329 328 329 328 328 326 325 327 326 327 327 326 325 325 324 323 324 323 324 325 325 324 322 320 321 326 326 327 328 329 329 330 331 328 330
324 326 331 333 331 330 330 328 328 327 327 326 325 323 324 324 324 323 322 323 323 322 321 321 321 321 321 322 322 321 319 316 320 324 325 327 326 327 329 327 328 328 327
323 324 330 331 330 329 329 328 328 327 326 323 322 321 322 321 322 319 318 318 318 319 318 318 317 318 319 320 320 319 316 313 313 318 321 324 326 326 326 327 326 327 327
323 322 327 329 329 329 329 328 326 327 325 323 321 319 316 317 316 316 317 317 315 315 316 316 316 317 319 317 318 318 316 311 311 312 311 318 319 325 324 323 324 325 325
322 320 324 327 328 328 328 328 327 325 325 323 322 319 314 314 316 316 313 317 315 315 314 315 316 317 318 314 315 315 313 310 311 312 312 314 317 318 320 322 321 322 323
321 322 324 324 326 327 327 326 326 325 323 322 321 320 319 318 316 313 313 314 317 317 317 316 315 315 313 310 310 311 310 312 312 312 312 311 315 317 316 317 319 320 321
320 321 324 324 324 325 323 325 324 323 323 322 321 319 318 316 316 313 312 316 315 313 313 313 312 310 310 313 312 310 312 311 311 312 312 309 314 317 317 316 315 317 319
321 322 323 324 325 323 322 323 322 322 321 320 319 318 317 315 315 315 313 313 315 310 313 313 313 313 310 311 312 311 310 310 311 311 309 309 313 316 318 318 318 317 317
320 321 323 325 324 323 322 321 321 320 320 318 317 317 316 315 314 315 313 314 314 314 313 314 313 312 311 311 310 310 310 311 311 311 311 309 312 315 317 318 319 320 319
319 321 322 324 323 323 322 322 321 320 320 318 317 317 316 315 315 316 315 313 313 314 313 313 313 312 311 311 311 310 310 311 311 312 312 309 312 315 316 318 319 320 321
319 320 322 323 324 323 322 322 321 321 321 321 319 318 316 316 316 315 314 314 313 313 313 312 311 311 311 311 310 311 311 312 312 312 312 313 311 313 315 317 318 320 321
319 320 321 322 323 323 322 322 323 322 321 321 320 319 317 317 315 314 314 313 314 314 312 312 312 312 312 312 311 312 312 312 312 312 313 313 313 311 312 314 316 318 319
319 319 321 321 322 323 322 322 323 323 322 322 321 320 318 318 317 315 314 313 314 314 313 312 312 312 312 312 312 313 313 313 312 312 313 313 313 312 311 311 313 315 317
318 318 319 321 321 321 322 322 322 322 322 322 321 321 320 318 317 316 314 314 314 313 313 313 311 312 311 312 312 312 313 313 313 310 311 312 313 313 314 309 310 312 315
318 318 319 319 320 321 322 321 321 321 321 322 321 321 319 318 317 316 315 314 314 313 313 312 311 313 311 311 310 311 313 312 313 312 312 311 312 313 314 314 314 313 309
317 317 317 318 319 320 320 318 318 317 319 320 320 320 319 318 316 315 315 314 314 313 313 313 312 311 312 313 312 314 312 310 310 311 313 312 312 313 313 314 314 313 313
316 316 317 316 318 319 319 318 318 318 319 319 320 319 319 317 316 314 314 314 314 313 313 313 312 312 312 312 311 312 311 309 310 312 313 310 311 312 313 313 313 313 313
315 316 316 317 317 317 318 318 317 317 317 316 317 317 317 317 316 315 315 315 315 314 314 314 313 312 311 313 311 311 311 310 310 312 311 310 309 311 313 314 313 312 312
315 317 317 317 317 317 318 316 315 314 313 316 317 318 318 317 316 316 315 315 315 315 313 314 313 312 311 311 312 309 310 310 309 309 312 311 310 311 313 313 313 313 313
315 316 317 318 317 318 317 317 317 315 317 319 318 318 318 317 317 316 315 315 314 314 314 313 312 311 312 312 312 310 309 309 308 307 306 310 311 313 313 313 313 313 314
315 316 317 316 316 317 317 317 317 317 318 317 317 316 317 316 316 315 315 315 315 314 313 313 313 313 313 312 313 312 311 310 309 307 306 308 308 311 312 313 313 314 314
Wind_Speed
10 12 12 11 10 7 7 11 11 10 8 9 9 12 12 12 13 13 12 14 14 14 13 13 14 16 16 18 19 19 17 18 18 18 20 21 20 19 20 18 16 17 19
14 12 13 12 10 8 8 10 10 9 10 10 11 11 10 11 12 13 13 14 14 14 13 12 14 16 17 16 16 17 16 18 17 19 19 15 18 17 17 20 18 16 20
14 12 14 11 11 8 10 10 9 10 9 8 11 10 11 11 12 13 13 13 14 14 13 11 15 16 16 16 16 16 17 17 17 15 15 9 12 17 15 16 19 16 17
13 11 11 14 12 10 10 10 11 7 10 10 11 10 10 10 11 11 11 12 13 13 13 12 14 14 16 14 14 14 14 14 13 10 9 11 9 17 16 15 15 18 14
12 10 12 14 14 10 7 10 9 8 9 8 9 8 10 9 10 10 12 11 12 13 13 11 12 13 13 15 13 13 14 11 11 10 11 11 10 13 16 15 14 13 16
12 12 13 13 12 12 10 8 10 8 9 9 9 9 8 8 9 10 11 11 11 11 11 11 11 11 11 12 12 12 12 11 6 8 9 9 12 13 13 13 14 13 14
12 11 13 13 12 9 12 7 7 9 9 8 7 7 6 7 8 9 8 9 9 9 9 9 10 10 10 11 12 12 11 9 6 7 8 8 11 12 13 11 13 13 12
12 11 9 12 12 11 10 8 9 8 7 7 7 6 6 5 7 7 7 7 7 8 7 7 7 7 8 9 9 10 9 8 4 6 7 7 11 11 10 11 11 11 12
12 10 9 11 11 11 10 10 7 7 9 8 7 6 5 5 4 4 6 7 6 6 6 5 5 6 7 7 7 6 5 5 5 4 5 5 10 9 9 9 10 9 9
11 11 10 8 10 11 11 9 9 8 7 7 7 6 5 5 4 3 1 2 5 4 3 3 3 3 5 5 4 5 4 4 4 2 3 6 7 6 6 6 6 7 8
10 11 10 9 9 8 7 9 8 8 8 7 7 7 7 4 4 3 4 1 2 2 3 3 4 4 2 1 1 3 6 2 3 2 1 4 5 5 4 5 5 4 5
15 13 10 10 9 9 6 7 7 6 6 6 6 7 4 4 2 3 1 2 1 2 1 1 1 2 6 2 1 6 2 2 2 2 1 2 5 6 3 2 2 3 4
15 12 12 11 10 10 8 6 4 4 4 4 6 5 4 3 3 2 1 2 1 2 2 2 2 1 4 3 2 2 3 3 3 2 1 4 6 6 7 5 4 4 4
17 15 14 13 11 11 7 7 7 5 5 5 5 6 4 3 3 2 2 1 2 1 2 2 2 3 3 3 4 4 4 3 3 3 2 5 7 8 7 7 7 6 6
17 17 16 14 12 11 11 7 7 6 6 5 5 6 5 4 3 2 2 2 2 2 2 2 2 3 4 4 4 5 5 4 4 3 4 4 8 9 8 8 9 8 8
17 18 17 16 14 12 10 10 7 7 6 6 6 6 7 4 4 3 3 2 3 2 2 3 3 4 4 5 5 5 6 5 6 6 5 4 7 9 8 8 9 9 9
16 17 17 17 16 14 13 10 8 7 7 7 6 7 7 6 6 5 4 3 3 2 4 4 4 4 4 4 6 5 5 6 5 6 5 4 3 8 8 8 8 9 9
16 18 17 14 16 16 13 10 8 8 7 7 6 6 8 8 7 6 5 4 3 3 3 4 3 4 4 4 5 5 5 5 6 4 3 3 2 3 6 7 8 9 9
17 17 18 17 17 17 15 10 10 10 8 7 7 7 8 9 8 7 5 5 5 4 4 4 4 4 5 5 5 5 4 2 0 3 4 1 1 2 1 4 5 7 8
16 16 17 15 17 16 11 11 8 8 8 8 8 8 9 8 9 7 6 6 5 4 5 4 5 3 5 5 6 4 1 1 2 3 1 1 3 2 1 3 3 2 5
16 17 17 17 17 13 11 11 10 10 9 8 9 11 11 9 9 9 7 7 6 6 6 5 4 5 4 3 5 2 2 4 4 4 1 3 4 2 2 4 3 3 3
19 19 18 18 17 15 11 10 9 9 9 9 9 10 12 11 11 10 9 8 8 6 7 6 6 3 3 2 3 2 1 4 4 0 1 3 6 3 3 6 5 5 5
21 21 19 19 18 17 16 10 8 5 4 7 8 8 10 13 12 12 12 10 9 7 6 7 6 6 4 2 4 3 1 1 2 3 3 4 5 4 5 5 5 5 5
20 18 19 19 19 17 19 14 15 12 11 9 9 8 9 13 13 13 13 12 10 7 8 7 7 6 6 5 2 3 3 4 2 2 3 4 5 7 6 4 4 4 4
17 18 18 19 19 18 18 17 13 15 11 9 7 9 10 9 13 13 13 12 11 9 9 9 8 9 7 5 5 3 5 4 5 4 4 3 4 4 4 4 3 3 2
16 16 17 19 19 19 18 20 19 17 14 11 10 9 8 8 8 12 13 12 11 10 10 9 9 10 9 8 5 5 5 4 4 4 5 5 5 4 4 4 4 2 2
Wind_Direction
153 147 144 150 155 149 118 91 85 103 90 88 87 71 71 65 66 68 70 62 54 55 62 56 57 60 61 51 54 61 56 48 46 52 53 47 44 46 46 47 47 52 53
147 147 150 155 151 147 140 95 95 101 92 80 82 87 65 78 63 67 69 58 62 56 66 57 51 49 59 64 58 57 54 46 46 50 43 58 50 41 49 46 48 47 49
148 149 156 157 152 131 123 122 123 111 97 96 83 70 72 65 66 63 55 67 60 58 66 56 55 54 55 57 57 54 51 46 44 47 45 38 61 59 52 53 47 52 46
147 154 151 161 144 138 137 123 117 119 100 86 77 81 70 80 77 72 62 54 70 62 62 62 54 53 63 57 61 56 49 47 47 45 53 48 74 67 60 47 51 47 51
152 151 141 172 145 150 125 129 129 113 107 103 96 89 82 70 73 59 66 60 52 63 63 62 58 54 50 59 56 59 47 42 42 58 54 33 50 52 57 52 54 57 50
154 158 148 147 163 168 147 150 140 118 103 92 80 82 74 68 69 65 60 64 57 53 59 60 60 58 55 57 61 56 49 40 41 59 52 51 52 46 47 45 58 52 43
161 160 163 149 153 162 150 148 123 141 121 100 98 101 78 79 74 69 61 56 57 57 56 53 55 54 53 51 55 52 46 33 36 53 54 42 54 43 45 57 38 47 48
162 167 157 163 160 162 158 160 149 134 119 125 121 109 93 89 73 62 56 58 52 54 53 54 54 47 45 40 39 49 40 5 56 57 49 49 23 54 47 28 50 40 47
167 174 170 168 166 166 171 158 167 155 147 142 133 125 118 120 101 73 55 49 58 57 61 57 52 41 39 34 34 35 45 9 3 42 34 38 21 32 50 42 25 30 48
171 178 178 178 174 169 167 174 167 169 160 161 154 147 149 140 111 85 175 51 72 73 60 48 34 23 42 23 23 28 13 263 35 2 52 48 354 16 25 41 29 21 18
183 186 182 183 180 175 178 160 182 181 178 175 178 173 176 189 163 194 69 301 339 29 26 20 17 14 5 140 34 339 276 24 304 352 351 50 320 332 10 22 7 358 4
188 190 189 189 185 183 184 180 192 172 194 189 193 184 189 175 103 323 300 253 300 320 284 326 332 267 242 335 149 209 328 321 282 297 284 316 288 289 299 314 320 328 337
191 189 195 190 193 189 192 189 188 194 192 198 203 206 197 217 205 218 234 196 232 184 240 235 230 334 345 344 338 325 305 290 280 267 205 266 283 285 285 278 283 288 296
192 192 193 194 193 196 195 198 192 193 192 195 198 200 210 211 217 234 257 279 260 312 315 309 319 329 300 287 290 302 286 288 287 286 257 234 264 267 270 279 273 271 274
196 194 197 192 197 197 199 197 198 199 197 197 192 196 214 211 224 222 235 249 260 273 268 287 296 296 292 297 289 289 290 292 288 282 281 208 258 262 266 273 273 275 271
200 196 195 195 198 198 203 199 201 204 200 199 201 201 206 217 225 220 232 244 246 246 272 288 305 305 298 295 301 288 291 283 274 271 270 266 241 262 266 269 275 275 279
202 198 198 196 195 203 205 204 205 204 208 207 208 204 209 216 227 226 240 235 246 246 264 265 275 283 278 288 285 301 294 292 287 280 278 281 261 224 252 263 272 274 278
201 200 195 194 200 201 207 204 208 207 210 216 213 213 214 220 223 229 238 239 237 247 263 273 287 290 283 296 308 316 305 304 296 281 319 292 276 290 199 241 264 275 278
204 199 199 195 200 203 207 210 212 217 214 218 220 219 218 221 223 228 233 237 230 241 245 260 269 278 304 309 317 318 316 323 289 161 44 54 226 253 290 156 255 268 273
203 205 202 199 203 202 203 209 214 218 219 224 223 225 221 220 221 227 233 237 232 238 244 238 260 270 293 309 305 293 130 135 148 199 273 161 131 145 126 328 279 201 252
203 205 205 200 202 198 201 203 210 214 216 221 221 225 223 221 218 221 230 230 221 235 240 245 260 269 272 277 276 161 149 155 106 119 341 181 141 117 286 350 290 288 290
203 203 204 204 201 200 201 204 207 213 223 220 218 219 220 218 217 219 223 227 225 225 226 228 224 246 256 263 305 252 211 163 202 33 205 189 189 303 276 334 302 297 300
207 203 203 202 201 200 201 199 206 209 222 213 216 218 216 218 216 217 222 225 224 224 231 222 220 225 254 242 262 314 249 309 323 164 200 205 228 281 305 316 311 301 311
208 204 203 200 201 200 198 200 204 209 214 215 216 212 214 214 216 217 221 221 226 217 224 222 214 221 223 236 238 251 263 315 291 266 178 206 237 276 294 292 299 306 311
203 204 204 203 202 199 200 203 206 217 218 216 211 212 212 209 217 214 216 217 219 220 223 218 207 208 215 232 224 174 210 220 240 249 278 229 260 238 261 292 286 293 313
203 204 201 202 203 200 201 203 208 213 215 211 210 212 214 209 205 213 212 216 215 217 219 216 218 215 215 218 221 219 222 219 193 215 239 257 284 283 272 272 257 272 288